This is the latest recevied weather packets stored in our database for station/object HS3MXC-1. If no packets are shown the sender has not sent any weather packets the latest 10 day(s).
| Time | Temp. | Humidity | Pressure | Rain* | Wind** | Luminosity | Snow |
|---|---|---|---|---|---|---|---|
| 1777807151 | 33.33° C | 55% | 993.8 hPa | - | - | - | - |
| 1777806845 | 33.33° C | 55% | 993.7 hPa | - | - | - | - |
| 1777806538 | 33.33° C | 55% | 993.7 hPa | - | - | - | - |
| 1777806230 | 33.33° C | 55% | 993.9 hPa | - | - | - | - |
| 1777805924 | 33.33° C | 55% | 993.9 hPa | - | - | - | - |
| 1777805618 | 33.33° C | 55% | 993.7 hPa | - | - | - | - |
| 1777805311 | 33.33° C | 54% | 993.6 hPa | - | - | - | - |
| 1777804698 | 32.78° C | 56% | 993.9 hPa | - | - | - | - |
| 1777804392 | 33.33° C | 55% | 994 hPa | - | - | - | - |
| 1777804086 | 33.33° C | 54% | 993.8 hPa | - | - | - | - |
| 1777803779 | 33.89° C | 53% | 993.7 hPa | - | - | - | - |
| 1777803472 | 33.33° C | 53% | 993.6 hPa | - | - | - | - |
| 1777803165 | 33.89° C | 52% | 993.5 hPa | - | - | - | - |
| 1777802858 | 33.33° C | 53% | 993.5 hPa | - | - | - | - |
| 1777802552 | 33.89° C | 53% | 993.6 hPa | - | - | - | - |
| 1777802245 | 33.89° C | 52% | 993.8 hPa | - | - | - | - |
| 1777801939 | 33.89° C | 51% | 994 hPa | - | - | - | - |
| 1777801633 | 33.89° C | 51% | 994.3 hPa | - | - | - | - |
| 1777801326 | 33.89° C | 51% | 993.8 hPa | - | - | - | - |
| 1777801020 | 33.89° C | 50% | 993.5 hPa | - | - | - | - |
| 1777800713 | 33.89° C | 50% | 993.4 hPa | - | - | - | - |
| 1777800407 | 33.33° C | 52% | 992.8 hPa | - | - | - | - |
| 1777799794 | 34.44° C | 50% | 992.8 hPa | - | - | - | - |
| 1777798131 | 36.11° C | 50% | 991.7 hPa | - | - | - | - |
| 1777797823 | 36.11° C | 50% | 991.7 hPa | - | - | - | - |
* Rain since midnight (hover to see other rain measurements)
** Current wind speed in m/s (hover to see current wind gust speed)